World > North America > United States > Illinois   City of Springfield, IL

Springfield, Illinois Regional Weather

Lat: 39.78N, Lon: 89.64W
Wx Zone: ILZ051Web Search

If you are on your PC, you can easily pass this page to your phone by scanning the QR Code near the bottom with your camera.

Feedback
Springfield Weather Map
UTC Time: 3/5/2021, 10:46
Your Time:

Springfield, IL Regional Weather

Expires:202103051100;;501077
ASUS43 KLOT 051008
RWRIL 

ILLINOIS REGIONAL WEATHER ROUNDUP
NATIONAL WEATHER SERVICE CHICAGO/ROMEOVILLE IL
400 AM CST FRI MAR 05 2021

NOTE: "FAIR" INDICATES FEW OR NO CLOUDS BELOW 12,000 FEET WITH NO
SIGNIFICANT WEATHER AND/OR OBSTRUCTIONS TO VISIBILITY.

* THESE STATIONS ARE NOT UNDER NWS QUALITY CONTROL. THEY ALSO MAY NOT
  REPORT WEATHER SUCH AS PRECIPITATION OR FOG.


ILZ028>032-037-038-041>044-048-051>054-059>061-051100-
CENTRAL ILLINOIS
  
CITY           SKY/WX    TMP DP  RH WIND       PRES   REMARKS
PONTIAC        CLEAR     27  25  91 NE8       30.36S WCI  19          
BLOOMINGTON    CLEAR     24  23  96 NE12      30.33S WCI  13          
DECATUR        CLEAR     25  24  96 NE10      30.31S WCI  15          
PEORIA         CLEAR     28  22  78 E10       30.34S WCI  19          
LACON*         CLEAR     25  22  87 CALM      30.36R                  
LINCOLN*       CLEAR     28  24  86 NE7       30.33R WCI  21          
SPRINGFIELD    CLEAR     28  23  81 E9        30.32R WCI  19          
TAYLORVILLE    CLEAR     28  21  74 E8        30.32R WCI  20          
$$


SKY/WX - Weather  TMP - Temperature  DP - Dew Point  RH - Relative Humidity
WIND - Wind Direction/Speed PRES - Barometric Pressure VSB - Visibility
WCI - Wind Chill Index E13G22 Wind - East Wind 13 mph/Gusts of 22 mph